Reflectivity
-20 -20 -20 -20 -20 -20 -20 -20 -20 -20 -20 -20 -20 -20 -20 -20 -20 -20 -20 -20 -20 -20 -20 -20 -20 -20 -20 -20 -20 -20 -20 -20 -20 -20 -20 -20 -20 -20 -20 -20 -20 -20 -20 -20 -20 -20 -20
-20 -20 -20 -20 -20 -20 -20 -20 -20 -20 -20 -20 -20 -20 -20 -20 -20 -20 -20 -20 -20 -20 -20 -20 -20 -20 -20 -20 -20 -20 -20 -20 -20 -20 -20 -20 -20 -20 -20 -20 -20 -20 -20 -20 -20 -20 -20
-20 -20 -20 -20 -20 -20 -20 -20 -20 -20 -20 -20 -20 -20 -20 -20 -20 -20 -20 -20 -20 -20 -20 -20 -20 -20 -20 -20 -20 -20 -20 -20 -20 -20 -20 -20 -20 -20 -20 -20 -20 -20 -20 -20 -20 -20 -20
3 -20 -20 -20 -20 -20 -20 -20 -20 6 -1 -20 -20 -20 -20 -20 -20 -20 -20 -20 -20 -20 -20 -20 -20 -20 -20 -20 -20 -20 -20 -20 -20 -20 -20 -20 -20 -20 -20 -20 -20 -20 -20 -20 -20 -20 -20
4 -16 -20 -20 -15 -20 -19 -20 -20 -17 -20 -4 -19 -18 -20 -20 -20 -20 -20 -20 -20 -20 -20 -20 -20 -20 -20 -20 -20 -20 -20 -20 -20 -20 -20 -20 -20 -20 -20 -20 -20 -20 -20 -20 -20 -20 -20
-20 3 5 2 -20 11 13 -2 -6 -15 -16 -20 -20 -20 -20 -20 -20 -20 -20 -20 -20 -20 -20 -20 -20 -20 -20 -20 -20 -20 -20 -20 -20 -20 -20 -20 -20 -20 -20 -20 -20 -20 -20 -20 -20 -20 -20
-20 3 4 -0 10 -20 9 3 -20 -20 -20 -20 -20 -20 -20 -20 -20 -20 -20 -20 -20 -20 -20 -20 -20 -20 -20 -20 -20 -20 -20 -20 -20 -20 -20 -20 -20 -20 -20 -20 -20 -20 -20 -20 -20 -20 -20
-14 -7 -20 -20 -20 -20 -20 -20 -5 -20 -20 -20 -20 -20 -20 -20 -20 -20 -20 -20 -20 -20 -20 -20 -20 -20 -20 -20 -20 -20 -20 -20 -20 -20 -20 -20 -20 -20 -20 -20 -20 -20 -20 -20 -20 -20 -20
-19 -4 -6 6 -1 -18 -19 -19 -20 -19 -20 -20 -20 -20 -20 -20 -20 -20 -20 -20 -20 -20 -20 -20 -20 -20 -20 -20 -20 -20 -20 -20 -20 -20 -20 -20 -20 -20 -20 -20 -20 -20 -20 -20 -20 -20 -20
-18 -11 -14 5 8 7 -20 -1 6 5 -14 -20 -20 -20 -20 -20 -20 -20 -20 -20 -20 -20 -20 -20 -20 -20 -20 -20 -20 -20 -20 -20 -20 -20 -20 -20 -20 -20 -20 -20 -20 -20 -20 -20 -20 -20 -20
-15 -20 -20 -20 -20 -20 -20 -20 -20 -20 -20 -20 -20 -20 -20 -20 -20 -20 -20 -20 -20 -20 -20 -20 -20 -20 -20 -20 -20 -20 -20 -20 -20 -20 -20 -20 -20 -20 -20 -20 -20 -20 -20 -20 -20 -20 -20
-20 -20 -20 -20 -20 -20 -20 -20 -20 -20 -20 -20 -20 -20 -20 -20 -20 -20 -20 -20 -20 -20 -20 -20 -20 -20 -20 -20 -20 -20 -20 -20 -20 -20 -20 -20 -20 -20 -20 -20 -20 -20 -20 -20 -20 -20 -20
-20 -20 -20 -20 -20 -20 -20 -20 -20 -20 -20 -20 -20 -20 -20 -20 -20 -20 -20 -20 -20 -20 -20 -20 -20 -20 -20 -20 -20 -20 -20 -20 -20 -20 -20 -20 -20 -20 -20 -20 -20 -20 -20 -20 -20 -20 -20
-20 -20 -20 -20 -20 -20 -20 -20 -20 -20 -20 -20 -20 -20 -20 -20 -20 -20 -20 -20 -20 -20 -20 -20 -20 -20 -20 -20 -20 -20 -20 -20 -20 -20 -20 -20 -20 -20 -20 -20 -20 -20 -20 -20 -20 -20 -20
26 7 -20 -20 -19 -19 -14 -20 -20 -20 -20 -20 -20 -17 -20 -20 -20 -20 -20 -20 -20 -20 -20 -20 -20 -20 -20 -20 -20 -20 -20 -20 -20 -20 -20 -20 -20 -20 -20 -20 -20 -20 -20 -20 -20 -20 -20
21 21 20 14 -0 -7 -14 -20 -20 -20 -20 -20 -10 4 -8 -20 -20 -20 -20 -20 -20 -20 -20 -20 -20 -20 -20 -20 -20 -20 -20 -20 -20 -20 -20 -20 -20 -20 -20 -20 -20 -20 -20 -20 -20 -10 3
14 15 17 18 16 16 19 14 14 11 9 4 -7 3 -11 -20 -20 -20 -9 -20 -20 -20 -20 -20 -20 -20 -20 -20 -20 -20 -20 -20 -20 -20 -20 -20 -20 -20 -20 -20 -20 -20 -20 -20 -20 -17 -1
-11 7 13 8 3 -3 -6 -3 -8 -10 -20 6 19 12 -14 -20 -17 -19 -4 -20 -20 -20 -20 -20 -20 -20 -20 -20 -20 -20 -20 -20 -20 -20 -20 -20 -20 -20 -20 -20 -20 -20 -20 -20 -20 -20 -20
3 1 -16 -19 -20 -20 -20 -20 -20 -20 -20 -20 17 15 -12 -16 0 -20 -20 -20 -20 -20 -20 -20 -20 -20 -20 -20 -20 -20 -20 -20 -20 -20 -20 -20 -20 -20 -20 -20 -10 1 -18 -12 -20 -20 -20
8 2 5 4 -5 -16 -20 -20 -20 -10 -20 14 19 13 10 12 -17 -6 -13 -20 -20 -20 -20 -20 -20 -20 -20 -20 -20 -20 -20 -20 -20 -20 -20 -20 -20 -20 -20 -20 -20 12 -14 -20 -18 14 5
10 6 -17 -20 -20 -18 -20 -20 -20 4 16 1 6 23 -10 23 -3 -0 2 1 -17 4 -18 -20 -12 -20 -20 2 -20 -20 -20 -20 -20 -20 -20 -20 -20 -20 -20 -20 -20 -19 5 -20 -20 -20 9
3 -7 -15 -20 -20 -20 -20 -20 -20 -11 19 10 27 25 4 6 -20 8 7 5 8 -20 -1 -20 -13 -4 -20 -20 -20 -9 6 8 -4 -19 -20 -20 -20 -20 -20 -20 -20 -20 -20 -20 -20 -20 -20
-3 -20 -20 -20 -20 -20 -20 -20 -20 -8 0 7 17 24 29 27 16 13 3 -20 9 14 9 -20 6 17 10 14 12 -19 -20 -20 -20 0 -20 6 11 17 5 -20 -19 -9 -20 -20 -20 -20 -18
-20 -20 -20 -20 -20 -20 -20 -20 -20 -20 19 -5 4 18 30 29 19 16 14 14 22 9 8 18 -20 -2 -15 -10 -5 -20 -20 -20 -20 -20 -20 11 17 17 16 5 18 -15 -17 -15 -15 -20 -20
-8 -20 -20 -20 -20 -20 -20 -20 -20 -20 -20 20 15 8 29 30 21 27 24 6 11 18 17 6 -1 -17 -17 -20 7 -13 -20 -20 -20 -20 -20 -20 16 21 19 19 -15 -20 -9 2 1 -20 -20
-20 -20 -19 -17 -17 -20 -20 -1 -20 -20 -20 -20 25 23 33 28 26 11 13 7 1 5 -7 -20 -20 -20 -20 -19 18 3 -19 -20 -20 -3 3 -16 -20 12 23 25 20 -15 16 -19 -20 -20 -20
-8 -16 -3 -20 -20 -20 -10 -20 -20 -20 -20 -20 -20 -20 17 21 11 -7 -1 1 -6 -4 -8 4 -20 -4 11 20 13 13 7 -20 1 -16 3 -6 18 20 20 20 2 -7 2 -20 -20 -20 -20
-20 -20 6 -20 -0 7 -20 -20 -20 -20 -20 -20 1 -20 -20 5 -13 -11 6 5 3 -9 13 0 4 -5 17 23 17 15 14 -9 -9 -20 -5 21 23 19 21 22 16 12 -12 -20 -20 -20 -20
-16 -10 -6 -10 -20 4 -20 -20 -20 -20 -20 -20 -16 -18 -20 -6 -17 -20 -17 -20 -20 -20 -19 -18 -16 20 21 17 24 18 24 22 19 16 4 19 -16 17 14 22 16 -20 -10 -20 -20 -20 -10
Wind_Speed
15 14 13 12 11 11 10 10 9 8 7 7 6 8 8 10 10 14 13 13 14 14 13 14 13 16 15 10 14 11 4 7 16 7 11 10 11 9 10 7 9 14 14 5 10 9 11
14 13 13 13 12 12 10 10 10 8 8 7 7 7 8 10 10 11 12 13 15 17 15 13 13 14 11 17 5 4 10 11 7 8 7 7 8 9 10 10 10 12 12 14 12 12 13
16 15 13 12 11 12 11 10 10 9 8 7 8 9 9 8 9 10 12 14 15 18 18 16 12 10 9 17 9 11 6 4 2 4 5 6 9 10 12 11 7 11 15 16 15 13 13
16 16 15 13 12 11 11 10 9 10 8 8 8 6 5 7 8 11 12 15 16 17 16 11 9 10 9 7 7 8 4 5 3 3 4 5 6 10 10 10 13 14 16 14 3 4 6
17 16 15 13 12 11 10 10 9 9 9 8 5 2 3 5 8 12 14 18 18 13 9 6 9 7 8 3 6 6 7 9 8 8 5 6 8 10 9 13 12 14 11 10 4 10 7
17 16 14 12 11 11 10 9 9 7 7 6 5 3 2 6 9 12 17 18 10 6 9 8 9 9 8 2 9 12 16 16 14 11 13 10 9 10 11 10 11 14 13 13 14 4 8
14 14 14 14 11 9 9 9 8 10 9 7 5 2 3 6 9 12 14 13 6 7 9 12 19 24 25 17 17 13 8 9 12 15 14 13 11 13 13 10 13 13 15 18 18 16 19
13 13 12 12 13 13 12 12 11 12 11 8 6 1 3 6 9 12 10 8 7 6 14 17 19 19 18 11 10 10 2 8 10 15 14 15 14 10 10 6 9 11 15 17 15 15 13
15 15 15 14 14 14 14 13 12 11 11 8 5 2 2 6 9 7 5 5 7 6 9 14 5 8 4 5 5 2 4 3 11 11 12 14 7 2 5 11 13 12 12 14 17 17 18
17 16 15 13 12 10 11 10 11 10 9 7 4 2 4 8 3 2 2 5 6 1 7 6 6 3 4 5 5 5 2 5 5 4 4 8 4 4 7 10 8 12 10 9 14 15 15
19 17 14 13 12 11 11 11 10 11 9 7 7 4 1 5 5 4 6 5 1 5 7 3 6 4 2 7 7 7 1 4 5 2 6 2 7 9 11 11 8 11 9 11 14 16 18
19 16 14 14 13 12 11 11 10 9 9 7 5 3 3 5 3 3 3 4 4 6 7 5 1 1 6 4 3 3 5 5 4 7 10 14 8 7 11 11 11 12 14 17 17 16 15
17 16 15 14 14 13 13 12 11 10 9 8 5 1 7 2 3 2 5 5 6 7 5 5 1 2 6 5 5 6 6 8 8 9 13 13 14 15 4 12 13 9 12 11 13 12 16
16 16 16 15 15 14 13 13 12 11 10 9 7 4 2 3 3 4 6 7 10 2 8 5 3 6 9 1 8 9 11 12 8 7 14 14 12 9 7 7 10 11 12 10 18 16 17
16 16 16 15 15 14 13 13 12 11 11 11 8 5 4 3 3 4 8 11 6 11 7 3 7 11 13 9 5 6 8 13 9 5 12 11 10 4 5 8 10 5 7 11 15 16 17
16 14 14 14 14 14 13 13 13 12 12 13 5 5 5 4 4 6 9 17 12 3 4 7 12 8 11 9 4 7 5 4 5 6 7 10 12 13 10 6 14 15 14 13 10 17 19
20 19 17 15 14 13 12 13 13 13 14 11 4 5 6 5 4 7 11 14 16 9 6 10 12 14 10 13 9 12 8 9 9 11 6 13 14 16 15 13 14 11 14 16 17 14 14
20 18 17 16 14 13 12 12 14 15 13 5 3 5 4 6 6 8 13 16 12 10 10 12 10 14 14 13 14 16 17 16 9 8 12 15 16 15 20 19 15 14 19 18 14 17 13
19 18 17 16 13 13 12 10 14 17 15 5 4 4 4 6 8 12 13 14 19 13 14 10 12 12 14 15 14 14 16 13 2 5 5 12 7 12 16 15 21 9 13 10 10 12 17
19 17 15 14 12 11 10 10 12 19 18 2 3 3 1 6 11 12 14 17 17 8 14 14 12 12 12 14 15 8 11 6 5 8 7 8 14 18 16 19 19 8 15 16 17 13 17
17 16 16 15 13 12 11 9 6 13 14 4 2 5 7 4 7 16 13 7 13 13 13 11 15 18 16 15 16 18 17 18 14 13 14 13 20 20 22 25 23 19 18 21 23 23 22
19 17 16 16 14 12 11 9 7 8 14 3 4 2 2 5 12 16 14 16 16 15 11 16 16 9 13 14 13 12 9 11 12 12 12 14 18 18 21 23 23 23 25 25 24 24 25
19 18 16 15 14 12 10 10 8 12 8 3 1 2 3 2 8 12 11 17 16 10 8 14 11 11 11 11 12 12 13 12 15 15 14 15 14 18 21 22 22 18 21 22 23 24 23
18 17 15 14 14 13 11 10 9 11 8 3 2 2 4 4 9 7 8 15 14 14 15 5 5 4 2 6 11 13 16 19 21 20 17 19 20 15 17 19 22 17 19 12 14 17 18
16 15 15 14 13 12 10 9 9 9 5 5 4 2 2 2 5 8 9 10 8 7 13 12 12 8 5 10 9 11 14 18 22 25 24 21 19 13 13 15 18 23 20 10 9 14 17
17 16 15 14 11 10 9 8 8 9 4 6 4 3 3 1 3 10 8 10 10 9 10 13 13 11 11 8 8 11 12 16 11 6 9 16 20 14 13 10 14 13 2 2 8 15 12
15 15 15 14 13 11 10 8 7 7 4 6 2 2 3 3 6 2 5 7 9 10 8 4 3 7 10 9 11 13 15 17 17 17 17 11 12 14 14 12 10 5 2 3 11 9 10
16 15 15 13 13 12 11 9 6 5 5 6 3 1 5 3 7 4 7 9 6 5 6 3 5 7 6 7 7 10 10 11 12 15 17 9 7 8 8 12 15 7 4 5 7 10 13
15 15 15 13 11 12 12 10 7 6 7 7 2 3 2 5 6 5 8 12 14 15 9 5 8 9 1 4 3 6 7 7 10 11 10 12 14 10 8 6 4 6 9 11 11 14 14
Wind_Direction
203 203 202 213 218 223 218 225 225 229 241 258 265 276 288 294 301 307 307 311 314 315 317 320 325 317 326 303 290 114 228 245 296 309 295 315 303 329 289 319 296 261 282 272 269 253 250
210 205 206 207 214 223 219 228 233 226 233 241 252 265 274 286 306 309 316 318 314 310 310 311 311 305 281 281 3 319 314 302 297 310 301 312 337 337 284 296 295 335 298 283 267 258 257
207 206 211 210 217 218 218 218 228 233 235 241 245 257 278 313 333 328 315 311 307 306 309 310 295 278 260 257 324 314 297 300 1 350 336 350 324 305 336 290 356 291 280 275 240 238 256
208 208 205 205 211 217 228 220 221 232 233 244 255 270 319 348 337 312 308 309 301 298 302 302 275 258 268 310 333 275 272 182 205 277 294 318 292 281 271 302 277 254 262 267 195 152 188
207 204 204 205 209 218 223 225 224 231 237 233 208 203 7 342 323 315 317 303 290 285 276 258 247 246 277 115 235 4 310 295 290 274 245 297 265 272 263 257 269 225 271 265 220 173 289
197 194 189 197 198 210 222 224 222 211 178 160 147 113 351 345 333 326 313 285 283 276 222 233 255 263 239 226 323 317 279 269 275 280 277 233 239 245 231 245 270 326 312 306 302 161 196
176 180 183 187 181 175 173 175 169 144 138 134 132 101 358 341 329 319 316 301 261 219 239 294 293 289 288 304 317 292 271 290 258 250 257 224 254 247 288 331 321 296 284 281 285 292 294
169 173 172 163 157 157 161 156 153 145 143 149 148 150 335 330 322 312 287 325 42 335 293 286 278 274 276 286 286 264 310 230 237 244 234 229 245 279 338 308 275 279 280 279 285 290 293
161 159 158 156 161 162 164 163 155 157 150 159 165 145 326 312 309 279 313 23 324 300 264 294 273 286 318 257 263 269 256 243 246 247 242 243 295 66 298 284 283 270 277 292 300 313 289
162 158 157 159 163 167 161 160 155 158 152 158 158 96 347 322 288 17 141 355 352 250 279 159 159 139 206 288 244 330 270 295 203 281 286 267 41 278 249 251 263 279 299 301 285 288 286
165 161 160 165 165 165 163 158 162 162 162 165 152 125 334 331 340 253 42 349 334 240 295 72 125 70 235 254 324 171 282 220 277 233 246 125 206 234 252 277 288 281 305 274 284 278 289
168 168 169 169 166 165 163 160 160 160 158 154 144 157 246 213 233 64 351 304 230 228 244 135 179 228 249 203 244 324 237 226 295 266 243 270 297 275 278 297 275 280 274 263 260 257 263
165 166 169 168 165 166 164 163 159 162 159 148 143 360 287 303 12 334 285 214 234 242 124 142 169 258 285 251 254 264 258 234 273 286 263 248 220 226 192 268 241 229 269 276 272 260 265
163 164 166 169 169 168 168 163 162 162 155 144 144 200 163 342 320 303 235 216 239 280 234 108 256 261 250 13 211 269 272 270 238 277 277 274 267 191 140 267 310 299 273 272 289 292 296
164 166 167 168 170 171 170 165 165 162 151 148 167 196 222 140 259 254 238 218 229 231 301 243 258 249 253 196 277 290 271 287 316 325 285 313 288 67 228 263 272 278 253 271 291 287 280
156 161 166 166 165 170 173 167 167 162 154 170 209 209 188 140 239 236 230 232 239 242 294 243 254 266 277 260 177 198 288 331 268 265 304 291 291 275 279 296 256 249 278 280 256 269 270
157 157 157 157 157 161 170 171 169 163 163 190 230 228 108 181 234 229 234 230 236 239 229 245 255 252 259 274 265 266 263 277 268 271 251 293 281 276 280 253 280 290 235 239 254 256 271
150 148 146 143 149 149 157 162 171 163 155 170 224 224 128 176 210 227 233 251 273 245 199 258 274 266 265 274 271 270 269 272 290 306 293 281 291 287 280 293 293 278 274 272 271 276 270
146 146 146 147 145 136 131 144 164 160 164 154 216 203 159 225 226 227 236 255 245 228 240 239 244 250 261 262 266 255 258 260 322 284 304 344 275 279 275 256 233 249 283 288 282 281 267
151 149 147 145 142 138 135 137 161 169 184 168 154 188 263 213 255 272 244 237 232 223 265 247 250 267 252 243 249 263 271 251 244 259 322 306 268 261 267 279 289 210 243 259 267 260 269
145 148 153 151 149 148 146 139 144 178 167 148 138 232 175 191 226 235 246 256 250 211 229 228 234 241 241 246 247 249 255 256 257 242 252 246 257 264 267 272 277 280 275 273 274 272 272
150 151 150 152 152 155 156 149 151 167 149 122 148 184 270 248 213 218 223 231 230 235 206 221 233 225 224 246 255 272 291 288 282 282 258 236 258 269 267 272 277 276 272 270 269 273 276
155 150 155 156 155 162 162 154 155 160 159 102 128 195 249 231 209 213 208 220 221 212 264 256 245 257 250 269 309 301 285 280 278 280 279 277 271 271 262 267 276 276 262 272 275 274 281
154 156 161 162 163 170 172 167 159 176 204 122 158 164 217 217 218 209 211 218 224 217 238 211 222 247 282 279 283 281 271 263 257 252 249 257 257 259 262 270 264 260 255 269 286 285 281
156 159 161 160 161 164 164 164 161 163 198 244 145 154 274 268 241 257 225 226 243 231 246 260 269 274 288 290 287 271 255 249 246 242 238 234 250 263 256 257 265 272 273 301 288 288 305
158 161 160 159 155 149 147 148 151 164 181 250 197 192 199 268 222 258 244 247 254 250 254 253 247 256 252 246 243 246 253 264 265 270 243 223 228 231 251 262 263 275 106 35 305 288 7
160 159 157 157 159 156 147 141 145 153 187 267 171 288 274 256 245 243 227 258 230 245 260 280 220 230 229 224 241 249 255 257 259 260 255 243 238 237 241 250 257 269 29 262 273 330 343
157 158 153 147 149 145 140 148 160 163 180 252 89 209 269 254 266 222 261 256 244 237 260 31 292 222 238 238 242 245 259 259 265 261 263 247 252 238 248 252 265 47 232 260 331 310 308
157 155 151 141 145 151 153 165 171 171 195 234 225 141 236 263 298 342 290 288 283 290 295 271 286 291 356 297 300 335 303 293 276 273 281 255 244 281 262 273 244 244 260 274 285 289 287